251P/LINEAR (2017)

Japanese version
Home page
Updated on July 6, 2017

---------------------------------------------------------------------

* Profile

* Pictures

* Orbital Elements

Epoch 2017 July 26.0 TT = JDT 2457960.5
T 2017 July 16.51719 TT                                 MPCW
q   1.7325366            (2000.0)            P               Q
n   0.15009567     Peri.   31.15112     -0.35992102     +0.89821370
a   3.5066354      Node   219.40611     -0.91673794     -0.39072370
e   0.5059262      Incl.   23.42091     -0.17334477     +0.20136318
P   6.57
From 325 observations 2004 Apr. 17-2017 May 2, mean residual 0".5.

* Magnitudes Graph

        m1 = 16.5 + 5 log d + 10.0 log r

---------------------------------------------------------------------

The orbital elements are published on M.P.E.C. 2017-J52.
The magnitudes graphs are made with Comet for Windows.

---------------------------------------------------------------------

Copyright(C) Seiichi Yoshida (comet@aerith.net). All rights reserved.